Wind_Speed
62 61 59 58 59 70 71 72 73 71 67 67 66 64 64 62 62 63 66 62 58 62 59 63 63 61 57 61 66 63 68 72 71 72 73 79 78 78 75 71 84 73 58 55 56
67 64 60 61 60 70 74 74 69 73 69 71 68 69 67 63 63 61 63 58 55 59 61 65 66 61 64 68 69 66 69 68 69 70 75 75 76 71 75 81 85 69 59 53 55
69 67 64 63 65 63 78 75 77 74 78 79 76 73 73 71 67 63 68 67 59 61 62 62 68 72 68 68 67 69 68 69 70 77 77 78 80 78 83 86 75 60 52 53 57
71 69 67 67 68 67 70 70 69 71 72 78 77 76 74 76 74 70 75 72 68 63 64 67 66 67 69 64 66 71 65 73 82 75 76 76 79 82 87 78 69 51 52 55 56
70 70 72 70 69 68 69 72 70 68 67 71 69 80 82 84 82 82 76 74 71 71 71 68 67 66 59 61 65 72 77 74 74 77 82 76 84 86 74 71 61 52 54 60 59
65 68 66 67 67 69 70 69 66 66 68 68 76 75 81 84 85 81 74 70 68 68 66 67 68 68 71 67 69 72 74 75 75 73 76 82 85 77 69 70 60 56 61 60 59
54 53 58 59 61 60 61 65 66 61 62 60 60 64 65 66 78 79 68 68 67 69 71 68 63 64 70 71 72 74 73 71 74 78 82 84 75 61 58 63 58 49 57 58 59
58 57 56 56 56 57 51 55 55 57 55 54 53 53 56 65 62 66 65 67 72 70 70 71 69 68 63 64 70 78 75 75 78 80 85 83 61 58 54 57 62 57 56 57 59
64 63 61 64 61 62 62 61 60 62 58 58 55 55 61 68 69 67 65 66 68 64 61 63 62 63 64 70 74 72 73 76 82 84 80 68 56 59 59 59 58 56 59 60 62
68 71 68 68 70 67 71 68 68 65 59 69 65 65 68 76 70 66 67 71 70 71 72 67 69 70 70 75 73 76 78 83 87 85 58 48 47 49 53 53 59 59 60 61 64
73 74 69 69 77 78 74 72 73 73 70 71 65 71 71 77 78 74 74 78 74 70 69 73 71 71 75 72 75 75 77 66 58 45 42 42 45 51 54 52 51 54 56 59 62
58 62 70 75 79 79 79 81 78 76 76 79 74 77 77 79 80 80 77 73 73 74 76 74 73 78 73 74 75 71 57 43 41 42 42 40 42 43 43 44 45 43 45 46 49
65 64 64 64 67 70 75 79 82 81 81 81 81 75 81 78 78 78 78 78 76 77 75 75 79 74 74 71 64 51 45 38 39 39 38 38 42 41 40 42 44 45 44 45 47
72 71 70 70 72 70 68 67 68 69 71 71 78 80 85 80 79 84 80 80 79 76 81 75 74 70 61 49 47 38 34 33 31 32 32 36 38 33 36 41 41 40 39 39 35
84 81 78 75 74 80 74 72 72 69 65 56 60 64 71 72 73 79 79 77 75 77 66 59 58 47 39 43 31 27 25 28 28 28 28 28 31 35 36 37 34 33 29 31 28
93 92 88 84 81 85 83 80 78 77 61 52 50 49 50 48 49 52 52 53 52 48 45 42 42 35 35 27 25 23 24 28 29 31 27 31 30 31 31 31 32 27 31 27 27
99 98 96 93 88 92 91 90 88 77 55 50 51 53 56 55 52 49 44 44 42 40 38 44 38 30 29 24 25 22 25 30 32 33 34 32 32 32 29 28 29 26 29 29 27
100 98 101 99 98 101 101 100 94 63 64 61 57 57 57 60 55 55 51 46 42 37 42 37 33 36 31 23 26 21 27 31 31 33 36 34 32 32 27 26 26 28 29 27 20
95 101 100 101 106 108 111 109 81 73 75 73 70 65 60 57 59 58 52 47 47 45 43 42 38 40 27 28 23 22 25 28 29 33 36 37 35 32 24 24 25 29 29 15 17
90 93 96 105 109 114 120 104 88 84 86 81 79 74 69 65 65 62 59 49 47 46 48 43 44 43 38 25 25 26 27 28 30 33 31 39 39 33 24 22 22 27 20 11 13
74 82 97 103 113 117 121 97 95 94 94 91 86 84 78 75 71 69 64 60 56 56 57 52 50 47 42 30 34 30 28 31 32 32 31 40 42 32 28 21 22 24 20 6 9
61 70 90 99 110 113 115 99 107 108 104 95 92 90 86 83 80 77 72 67 63 63 62 57 58 50 50 41 34 32 34 34 34 31 35 38 42 32 28 20 22 23 20 4 8
57 63 76 87 98 111 113 110 117 114 109 103 98 97 95 90 87 83 82 77 73 70 67 67 56 56 54 38 37 38 40 35 34 34 36 38 41 28 29 21 22 26 19 5 7
51 59 66 73 86 103 113 116 120 115 114 111 105 97 95 91 90 91 87 83 80 77 76 74 68 58 51 51 50 42 42 34 34 35 37 41 41 29 29 24 16 19 17 5 11
46 52 57 63 75 89 105 114 117 119 117 117 110 106 105 99 95 94 94 92 89 84 83 79 70 63 60 59 53 49 45 39 35 40 38 39 40 36 29 26 16 21 20 10 11
39 45 48 57 64 73 89 103 113 120 121 119 115 115 111 105 105 99 98 95 95 92 87 82 73 70 67 64 58 54 47 37 37 44 41 37 43 36 28 24 16 19 21 12 9
35 37 42 47 55 63 77 90 103 117 122 124 120 122 115 113 107 104 97 92 91 91 89 84 79 74 67 66 66 59 44 42 43 45 42 37 43 35 29 25 19 17 18 11 12
Wind_Direction
241 244 247 242 241 235 235 238 241 243 246 245 245 253 259 263 259 256 256 262 270 264 262 264 277 273 274 281 291 288 282 283 287 288 292 294 298 304 303 301 310 314 297 295 295
241 243 244 246 245 234 234 237 242 244 243 246 250 254 257 256 254 261 257 265 264 262 260 272 274 272 276 282 287 282 278 281 285 288 293 295 299 306 305 308 310 309 291 290 295
241 244 245 244 244 244 237 239 241 242 247 250 253 254 253 254 252 254 259 260 256 258 266 268 266 271 279 284 283 274 276 280 285 290 291 294 298 305 304 309 309 301 288 287 291
243 245 248 247 246 247 247 249 254 250 243 244 249 249 252 251 250 252 255 258 259 263 266 268 270 276 279 279 275 272 276 284 287 287 292 295 296 303 306 306 304 290 286 289 296
245 248 251 252 253 251 249 250 252 254 252 246 248 244 248 250 249 253 257 259 263 267 268 269 271 273 271 267 271 279 284 284 285 289 290 296 304 307 303 301 295 296 287 292 304
245 249 251 252 252 251 251 253 253 251 251 251 251 250 247 246 250 253 256 260 262 264 261 268 268 270 270 271 275 278 279 282 286 290 296 300 303 301 295 293 293 294 292 301 305
237 242 250 252 252 252 251 252 252 250 248 248 246 249 245 249 254 254 256 258 257 259 265 266 263 265 270 271 273 275 278 282 286 293 301 303 298 293 292 294 297 289 295 297 301
235 241 241 245 242 247 243 247 250 250 248 248 246 245 247 250 250 250 251 256 258 261 261 265 268 266 268 272 273 277 278 284 292 298 299 298 290 285 282 284 288 293 296 297 299
242 239 240 238 238 237 239 240 236 237 241 246 247 247 239 245 244 247 250 251 255 258 263 263 266 270 271 272 274 283 290 294 296 297 296 290 285 284 283 282 285 288 290 293 296
248 246 244 242 241 244 239 237 241 241 244 238 237 240 241 247 244 247 255 259 257 258 263 270 273 275 280 276 284 288 294 294 295 293 288 291 291 288 286 281 279 283 285 291 293
250 248 246 248 246 246 244 243 240 241 240 241 242 243 245 250 257 256 257 261 268 270 274 273 278 286 283 290 293 294 296 292 285 285 288 286 283 281 285 289 290 289 288 288 291
255 254 250 249 249 247 247 244 245 240 246 246 244 245 245 249 251 254 256 263 267 272 275 275 279 280 290 289 288 291 282 275 284 284 286 289 284 288 294 294 295 295 291 292 296
250 250 251 252 252 249 249 249 249 249 247 247 248 244 252 250 256 258 258 262 270 272 274 277 280 283 283 284 281 273 273 281 281 283 285 284 285 292 296 295 294 292 293 296 298
253 250 246 246 249 251 247 247 247 247 245 244 250 247 251 251 255 256 256 260 263 265 265 271 272 273 274 269 266 271 279 283 286 286 294 285 284 285 289 292 298 301 304 296 300
248 246 247 243 244 247 246 246 245 244 243 240 248 246 250 250 251 256 256 258 259 263 263 259 264 259 254 260 267 275 282 289 294 301 308 314 297 288 292 296 301 309 295 301 310
246 244 243 242 242 243 244 243 243 243 244 241 240 244 244 245 241 246 247 246 247 249 249 246 246 250 253 258 266 275 287 293 299 306 309 313 319 305 306 298 306 311 301 309 313
248 242 241 241 238 242 242 241 240 241 244 244 236 237 240 242 241 241 238 240 238 234 238 239 245 249 251 256 265 281 291 297 304 306 311 312 314 321 311 307 308 306 305 313 317
253 247 239 237 238 238 239 240 238 235 238 239 237 232 234 238 241 240 239 237 239 240 244 247 248 245 246 255 263 279 283 291 303 307 309 320 325 325 314 313 311 308 303 309 317
250 249 243 237 234 237 237 236 238 234 231 233 232 231 227 232 238 238 237 231 232 234 240 242 245 251 253 252 262 269 276 287 297 303 310 316 323 331 317 310 311 309 307 306 309
247 241 241 239 236 234 235 234 231 232 232 228 229 229 226 225 231 234 231 231 236 240 245 246 251 254 254 261 264 266 273 282 291 297 313 314 316 327 310 306 308 306 297 307 299
245 240 236 233 233 235 233 230 230 229 230 229 227 226 224 224 226 231 232 228 232 238 241 238 244 249 255 256 255 267 274 278 283 297 306 304 312 324 311 308 304 298 293 318 294
246 239 236 230 229 229 229 228 229 227 227 225 227 226 224 223 224 226 230 233 235 235 241 242 241 244 251 251 261 266 268 271 282 295 299 303 307 321 310 306 301 296 298 291 293
248 240 237 233 228 227 226 223 226 224 226 223 223 224 224 221 223 226 229 230 232 235 240 245 244 248 254 256 260 257 261 273 282 288 293 298 302 317 308 294 297 297 298 280 300
250 242 237 232 228 227 225 220 223 223 224 223 221 222 224 224 223 224 226 229 232 233 237 241 242 246 251 248 248 258 264 267 276 286 289 291 300 316 307 295 295 297 290 275 273
254 247 240 233 227 226 226 222 220 221 221 222 221 220 220 221 222 222 225 227 229 231 235 239 242 244 246 249 251 253 257 264 278 280 284 290 296 304 311 300 295 291 284 240 258
255 250 242 235 229 225 226 224 220 220 220 221 220 221 220 221 221 222 222 225 230 232 234 237 238 240 244 247 251 252 253 265 271 273 277 286 289 301 308 294 287 283 295 237 225
259 248 243 236 231 225 226 224 221 220 219 220 219 220 219 220 223 224 225 225 228 233 235 235 238 241 242 244 247 247 253 256 260 267 273 281 282 296 305 301 279 281 278 242 227
Height
10810 10814 10818 10823 10827 10831 10836 10840 10844 10849 10852 10855 10859 10861 10863 10865 10866 10868 10870 10870 10878 10880 10880 10877 10880 10880 10879 10876 10876 10874 10869 10865 10864 10860 10856 10850 10845 10842 10834 10828 10822 10816 10809 10805 10800
10801 10805 10809 10812 10816 10820 10824 10828 10832 10837 10840 10843 10847 10851 10854 10857 10858 10857 10856 10861 10867 10867 10868 10870 10869 10868 10868 10868 10866 10862 10857 10856 10852 10851 10846 10840 10836 10831 10824 10819 10814 10806 10799 10793 10791
10790 10794 10798 10802 10805 10808 10813 10817 10822 10824 10827 10833 10838 10840 10842 10844 10846 10846 10844 10848 10852 10855 10858 10858 10858 10858 10860 10857 10855 10851 10846 10847 10841 10840 10836 10831 10826 10819 10813 10807 10803 10796 10790 10784 10780
10777 10783 10786 10790 10794 10799 10803 10805 10808 10812 10814 10819 10824 10827 10830 10832 10833 10835 10831 10837 10840 10845 10847 10845 10847 10850 10848 10847 10845 10841 10836 10835 10831 10829 10825 10820 10813 10806 10799 10795 10791 10788 10781 10777 10771
10766 10770 10772 10777 10779 10784 10787 10791 10794 10798 10802 10805 10809 10813 10817 10818 10815 10824 10822 10823 10828 10831 10833 10834 10838 10838 10838 10833 10831 10825 10825 10822 10819 10818 10814 10808 10800 10791 10786 10782 10779 10779 10773 10767 10762
10755 10757 10760 10763 10765 10768 10771 10776 10780 10785 10788 10792 10795 10798 10802 10801 10802 10813 10807 10812 10816 10819 10820 10824 10827 10829 10826 10821 10817 10815 10812 10810 10808 10807 10801 10796 10789 10782 10775 10772 10769 10766 10764 10758 10753
10741 10744 10745 10747 10749 10751 10756 10762 10765 10769 10773 10778 10782 10787 10790 10779 10792 10798 10800 10800 10806 10809 10811 10812 10814 10816 10811 10806 10805 10803 10803 10800 10798 10795 10789 10783 10775 10771 10765 10762 10761 10757 10754 10749 10744
10729 10731 10733 10733 10735 10738 10743 10748 10751 10754 10759 10763 10769 10776 10779 10772 10782 10782 10791 10792 10793 10796 10799 10799 10801 10802 10797 10796 10790 10793 10792 10788 10787 10782 10779 10773 10765 10761 10759 10754 10750 10747 10744 10741 10735
10715 10716 10719 10721 10723 10726 10729 10734 10739 10744 10747 10751 10757 10763 10765 10759 10768 10769 10777 10780 10783 10783 10783 10784 10784 10784 10787 10782 10781 10782 10780 10776 10770 10773 10767 10760 10756 10752 10749 10747 10738 10737 10735 10731 10726
10700 10701 10704 10705 10707 10712 10714 10720 10724 10728 10732 10739 10743 10748 10753 10742 10752 10758 10762 10765 10772 10771 10771 10769 10767 10774 10772 10770 10775 10771 10767 10764 10760 10759 10754 10751 10748 10742 10734 10736 10730 10727 10725 10722 10717
10684 10686 10687 10688 10690 10692 10697 10703 10708 10713 10717 10721 10731 10732 10737 10735 10731 10743 10750 10751 10755 10756 10755 10754 10760 10758 10756 10762 10760 10757 10756 10750 10748 10748 10745 10741 10738 10731 10725 10723 10720 10720 10719 10712 10706
10665 10666 10669 10671 10670 10673 10677 10685 10689 10697 10702 10705 10714 10716 10721 10719 10723 10728 10737 10740 10742 10741 10740 10746 10748 10744 10751 10750 10749 10747 10747 10742 10741 10738 10736 10733 10728 10723 10720 10715 10712 10711 10706 10703 10699
10645 10647 10649 10652 10650 10652 10659 10665 10669 10675 10687 10690 10695 10705 10699 10708 10711 10714 10722 10725 10727 10727 10729 10728 10730 10738 10740 10740 10737 10737 10736 10736 10733 10730 10729 10725 10717 10717 10714 10708 10705 10703 10700 10696 10691
10621 10623 10627 10632 10630 10634 10640 10644 10646 10654 10662 10678 10675 10690 10685 10697 10704 10700 10708 10710 10715 10717 10717 10724 10724 10725 10731 10729 10728 10728 10730 10727 10725 10723 10721 10715 10712 10710 10705 10703 10702 10698 10693 10686 10682
10592 10596 10602 10610 10614 10607 10620 10625 10626 10635 10643 10662 10664 10675 10673 10684 10679 10687 10686 10696 10701 10702 10707 10711 10714 10716 10718 10717 10721 10721 10722 10720 10718 10716 10713 10708 10704 10699 10699 10697 10696 10691 10684 10680 10676
10561 10567 10572 10582 10590 10582 10592 10599 10606 10608 10637 10653 10657 10659 10659 10665 10666 10668 10675 10680 10683 10692 10697 10700 10701 10706 10707 10711 10712 10714 10714 10712 10710 10708 10705 10702 10698 10693 10692 10688 10687 10685 10679 10675 10671
10521 10534 10545 10553 10563 10557 10562 10569 10576 10599 10636 10640 10647 10647 10645 10649 10652 10658 10665 10670 10677 10681 10686 10683 10691 10697 10700 10703 10704 10707 10706 10705 10704 10701 10699 10695 10692 10690 10687 10684 10681 10678 10674 10671 10666
10480 10495 10507 10523 10528 10524 10528 10535 10552 10615 10615 10622 10627 10627 10632 10632 10640 10646 10653 10662 10669 10674 10673 10679 10683 10684 10690 10696 10697 10701 10701 10699 10698 10695 10692 10689 10686 10683 10682 10679 10675 10672 10668 10666 10662
10433 10447 10469 10484 10489 10489 10489 10499 10569 10586 10588 10593 10604 10610 10617 10623 10625 10631 10643 10652 10654 10660 10664 10665 10670 10670 10683 10686 10692 10696 10696 10695 10693 10689 10687 10681 10679 10679 10675 10673 10669 10666 10663 10661 10658
10387 10406 10427 10435 10447 10450 10450 10503 10545 10555 10557 10567 10576 10592 10602 10607 10608 10616 10625 10642 10646 10651 10649 10658 10660 10664 10670 10680 10686 10688 10689 10689 10687 10684 10682 10676 10674 10675 10670 10668 10665 10661 10659 10656 10655
10352 10368 10370 10388 10398 10409 10427 10505 10513 10520 10525 10540 10554 10564 10581 10588 10597 10602 10614 10624 10633 10637 10636 10645 10649 10654 10661 10675 10676 10681 10682 10681 10682 10680 10678 10671 10668 10671 10665 10663 10661 10658 10656 10653 10653
10325 10333 10327 10347 10363 10384 10404 10470 10471 10478 10491 10516 10529 10543 10557 10568 10578 10585 10599 10609 10619 10621 10626 10636 10636 10647 10651 10663 10671 10675 10672 10674 10675 10675 10671 10668 10663 10667 10662 10659 10657 10656 10653 10650 10651
10297 10302 10303 10318 10340 10353 10380 10413 10417 10444 10466 10488 10503 10514 10528 10545 10560 10573 10578 10592 10601 10608 10614 10618 10637 10638 10641 10660 10663 10661 10662 10667 10668 10669 10666 10664 10659 10663 10659 10656 10654 10653 10650 10649 10649
10273 10275 10282 10294 10310 10322 10343 10366 10383 10414 10438 10458 10480 10503 10511 10528 10543 10553 10564 10575 10584 10595 10598 10601 10615 10631 10641 10642 10643 10654 10655 10660 10662 10664 10660 10655 10653 10659 10656 10652 10651 10650 10646 10647 10649
10253 10255 10262 10274 10283 10293 10309 10333 10362 10382 10406 10425 10459 10475 10481 10498 10515 10528 10542 10552 10563 10576 10582 10590 10609 10621 10628 10629 10638 10643 10648 10652 10657 10655 10655 10652 10648 10652 10653 10649 10650 10647 10645 10643 10646
10237 10239 10244 10252 10261 10276 10289 10308 10334 10353 10374 10398 10428 10439 10458 10479 10483 10503 10515 10534 10545 10558 10568 10579 10600 10607 10614 10620 10628 10632 10640 10648 10650 10646 10648 10649 10643 10647 10649 10644 10645 10644 10643 10641 10642
10221 10225 10228 10235 10246 10258 10265 10284 10309 10323 10342 10363 10393 10405 10436 10449 10471 10481 10507 10522 10533 10545 10556 10572 10583 10593 10608 10609 10608 10619 10637 10639 10640 10639 10642 10643 10637 10643 10645 10641 10642 10640 10639 10639 10640